Location: Jodlow
(50.1500°N, 16.7500°E)
Time: 19:36:16
(UTC+02:00)

O/OREOS (USA 219) - Pass Details

Date: 29 February 2024
Orbit: 621 x 646 km, 72.0° (Epoch: 22 May)

Event Time Altitude Azimuth Distance (km) Brightness Sun altitude
Rises 05:19:04 0° 198° (SSW) 2,931 ? -13.4°
Reaches altitude 10° 05:21:20 10° 196° (SSW) 2,030 ? -13.0°
Maximum altitude 05:25:52 69° 114° (ESE) 693 ? -12.3°
Drops below altitude 10° 05:30:27 10° 32° (NNE) 2,054 ? -11.6°
Sets 05:32:45 0° 30° (NNE) 2,969 ? -11.2°
